Regional Weather Roundup
Issued by NWS

Home | Current Version | Previous Version | Text Only | Print | Product List | Glossary On
Versions: 1 2 3 4 5 6 7 8 9 10 11 12 13 14 15 16 17 18 19 20 21 22 23 24 25 26 27 28 29 30 31 32 33 34 35 36 37 38 39 40 41 42 43 44 45 46 47 48 49 50
000
ASUS43 KFSD 270902
RWRSD

WEATHER ROUNDUP FOR SOUTH DAKOTA
NATIONAL WEATHER SERVICE SIOUX FALLS SD
300 AM CST MON FEB 27 2017

NOTE: "FAIR" INDICATES FEW OR NO CLOUDS BELOW 12,000 FEET WITH NO
SIGNIFICANT WEATHER AND/OR OBSTRUCTIONS TO VISIBILITY.


SDZ001>005-009-010-012>017-271000-
NORTHWEST AND NORTH CENTRAL SOUTH DAKOTA

CITY           SKY/WX    TMP DP  RH WIND       PRES   REMARKS
BUFFALO          N/A     23  20  88 SE6       29.64F WCI  16
FAITH            N/A     24  24 100 E8        29.75F WCI  15
MOBRIDGE       PTCLDY    24  18  77 NE9       29.79F WCI  14
$$

SDZ012>016-024>037-041>051-057-063-072>074-271000-
SOUTHWEST AND SOUTH CENTRAL SOUTH DAKOTA

CITY           SKY/WX    TMP DP  RH WIND       PRES   REMARKS
RAPID CTY ARPT CLOUDY    24  16  71 SE8       29.70F WCI  15
PIERRE         CLOUDY    22  14  71 S5        29.81R WCI  16
CUSTER         CLOUDY    20   4  50 SW9G21    29.61F WCI   9
ELLSWORTH AFB  CLOUDY    27  15  61 S7        29.69F WCI  19
PHILIP         CLOUDY    18  14  84 CALM      29.78F
PINE RIDGE     CLOUDY    19   9  65 S9        29.75F WCI   8
SPEARFISH      FAIR      18  10  73 S6        29.66F WCI   9
WINNER         FAIR      24  12  60 SW16      29.83S WCI  11
$$

SDZ004>011-016>023-039-040-271000-
NORTHEAST SOUTH DAKOTA

CITY           SKY/WX    TMP DP  RH WIND       PRES   REMARKS
ABERDEEN       CLOUDY    22  18  85 N6        29.85F WCI  14
WATERTOWN      CLEAR     23  20  88 S6        29.83S WCI  16
BROOKINGS      CLEAR     24  19  81 S7        29.86S WCI  16
SISSETON         N/A     21  20  96 E3        29.87F
$$

SDZ017-020-022-023-036>040-048>070-271000-
SOUTHEAST SOUTH DAKOTA

CITY           SKY/WX    TMP DP  RH WIND       PRES   REMARKS
SIOUX FALLS    CLEAR     26  20  77 S9        29.90F WCI  17
HURON          CLEAR     22  19  89 SE5       29.85S WCI  16
CHAMBERLAIN    CLEAR     24  16  72 SW3       29.85F
MITCHELL       PTCLDY    25  18  74 CALM      29.88S
YANKTON        CLEAR     19  16  86 S6        29.92F WCI  11
$$

ABBREVIATIONS USED IN REMARKS
   TC - TEMPERATURE IN CELSIUS
  WCI - WIND CHILL INDEX
   HX - HEAT INDEX
  VSB - VISIBILITY





USA.gov is the U.S. government's official web portal to all federal, state and local government web resources and services.